Weather History for Naples, Italy

Change the Weather History Date:

Saturday, November 10, 2012

  Actual Average Record
Temperature  
Mean Temperature 58 °F -  
Max Temperature 68 °F 61 °F 73 °F (2014)
Min Temperature 48 °F 44 °F 42 °F (2007)
Degree Days  
Heating Degree Days 7    
Growing Degree Days 8 (Base 50)    
Moisture  
Dew Point 51 °F    
Average Humidity 78    
Maximum Humidity 94    
Minimum Humidity 56    
Precipitation  
Precipitation 0.00 in 0.19 in - ()
Sea Level Pressure  
Sea Level Pressure 30.06 in    
Wind  
Wind Speed 3 mph ()    
Max Wind Speed 6 mph    
Max Gust Speed -    
Visibility 5.0 miles    
Events      
Averages and records for this station are not official NWS values.
T = Trace of Precipitation, MM = Missing Value Source: Averaged Metar Reports

Daily Weather History Graph

Daily Weather History Graph

Search for Another Location

Airport:

Trip Planner

Search our weather history database for the weather conditions in past years. The results will help you decide how hot, cold, wet, or windy it might be!

Date:

Astronomy

Nov. 10, 2012 Rise Set
Actual Time 6:44 AM CET 4:48 PM CET
Civil Twilight 6:15 AM CET 5:17 PM CET
Nautical Twilight 5:42 AM CET 5:50 PM CET
Astronomical Twilight 5:10 AM CET 6:22 PM CET
Moon 2:28 AM CET (11/10) 2:26 PM CET (11/10)
Length of Visible Light 11h 02m
Length of Day
10h 04m
Waning Crescent, 16% of the Moon is Illuminated
Nov 10
Waning Crescent
Nov 13
New
Nov 20
First Quarter
Nov 28
Full
Dec 6
Last Quarter

Hourly Weather History & Observations

Time (CET) Temp. Dew Point Humidity Pressure Visibility Wind Dir Wind Speed Gust Speed Precip Events Conditions
12:20 AM 53.6 °F 50.0 °F 88% 30.09 in 5.0 mi North 2.3 mph - N/A   Unknown
12:50 AM 51.8 °F 50.0 °F 94% 30.09 in 4.3 mi North 2.3 mph - N/A   Unknown
1:20 AM 50.0 °F 46.4 °F 87% 30.09 in 4.3 mi NNW 3.5 mph - N/A   Unknown
1:50 AM 51.8 °F 50.0 °F 94% 30.09 in 4.3 mi North 2.3 mph - N/A   Unknown
2:20 AM 50.0 °F 48.2 °F 94% 30.09 in 4.3 mi NNW 3.5 mph - N/A   Unknown
2:50 AM 51.8 °F 48.2 °F 88% 30.06 in 4.3 mi North 3.5 mph - N/A   Unknown
3:20 AM 50.0 °F 46.4 °F 87% 30.06 in 4.3 mi NNW 3.5 mph - N/A   Unknown
3:50 AM 50.0 °F 46.4 °F 87% 30.06 in 4.3 mi NNW 2.3 mph - N/A   Unknown
4:20 AM 50.0 °F 46.4 °F 87% 30.06 in 5.0 mi NW 3.5 mph - N/A   Unknown
4:50 AM 51.8 °F 48.2 °F 88% 30.06 in 5.0 mi NNW 3.5 mph - N/A   Unknown
5:20 AM 50.0 °F 46.4 °F 87% 30.06 in 5.0 mi Variable 2.3 mph - N/A   Unknown
5:50 AM 48.2 °F 46.4 °F 93% 30.06 in 5.0 mi Variable 2.3 mph - N/A   Unknown
6:20 AM 50.0 °F 46.4 °F 87% 30.06 in - North 3.5 mph - N/A   Clear
6:50 AM 51.8 °F 48.2 °F 88% 30.09 in - NNE 4.6 mph - N/A   Clear
7:20 AM 51.8 °F 48.2 °F 88% 30.09 in - North 4.6 mph - N/A   Clear
7:50 AM 53.6 °F 48.2 °F 82% 30.09 in - North 3.5 mph - N/A   Clear
8:20 AM 53.6 °F 48.2 °F 82% 30.09 in - North 3.5 mph - N/A   Clear
8:50 AM 59.0 °F 50.0 °F 72% 30.09 in - NW 4.6 mph - N/A   Clear
9:20 AM 59.0 °F 50.0 °F 72% 30.09 in 6.2 mi North 3.5 mph - N/A   Scattered Clouds
9:50 AM 59.0 °F 50.0 °F 72% 30.09 in 6.2 mi North 3.5 mph - N/A   Mostly Cloudy
10:20 AM 59.0 °F 50.0 °F 72% 30.09 in 6.2 mi North 2.3 mph - N/A   Mostly Cloudy
10:50 AM 60.8 °F 50.0 °F 68% 30.09 in 6.2 mi NNE 3.5 mph - N/A   Scattered Clouds
11:20 AM 64.4 °F 51.8 °F 64% 30.06 in 6.2 mi NNE 3.5 mph - N/A   Scattered Clouds
11:50 AM 64.4 °F 51.8 °F 64% 30.06 in 6.2 mi Variable 1.2 mph - N/A   Scattered Clouds
12:20 PM 66.2 °F 51.8 °F 60% 30.06 in 6.2 mi Variable 2.3 mph - N/A   Scattered Clouds
12:50 PM 68.0 °F 51.8 °F 56% 30.04 in - Variable 2.3 mph - N/A   Clear
1:20 PM 68.0 °F 51.8 °F 56% 30.04 in - Variable 2.3 mph - N/A   Clear
1:50 PM 68.0 °F 53.6 °F 60% 30.04 in - WSW 5.8 mph - N/A   Clear
2:20 PM 68.0 °F 53.6 °F 60% 30.04 in - SSW 5.8 mph - N/A   Clear
2:50 PM 68.0 °F 55.4 °F 64% 30.04 in - SSW 4.6 mph - N/A   Clear
3:20 PM 68.0 °F 53.6 °F 60% 30.04 in - SSW 4.6 mph - N/A   Clear
3:50 PM 66.2 °F 53.6 °F 64% 30.04 in - South 3.5 mph - N/A   Clear
4:20 PM 64.4 °F 53.6 °F 68% 30.04 in - South 3.5 mph - N/A   Clear
4:50 PM 64.4 °F 53.6 °F 68% 30.04 in - Variable 2.3 mph - N/A   Clear
5:20 PM 62.6 °F 53.6 °F 72% 30.04 in - Calm Calm - N/A   Clear
5:50 PM 60.8 °F 53.6 °F 77% 30.04 in - Variable 2.3 mph - N/A   Clear
6:20 PM 59.0 °F 53.6 °F 82% 30.04 in - NW 2.3 mph - N/A   Clear
6:50 PM 60.8 °F 53.6 °F 77% 30.04 in - Calm Calm - N/A   Clear
7:20 PM 60.8 °F 53.6 °F 77% 30.04 in - NNW 3.5 mph - N/A   Clear
7:50 PM 60.8 °F 53.6 °F 77% 30.04 in 5.0 mi NNW 2.3 mph - N/A   Unknown
8:20 PM 59.0 °F 53.6 °F 82% 30.04 in 5.0 mi NW 2.3 mph - N/A   Unknown
8:50 PM 59.0 °F 53.6 °F 82% 30.04 in 5.0 mi NE 3.5 mph - N/A   Unknown
9:20 PM 57.2 °F 51.8 °F 82% 30.04 in 5.0 mi North 2.3 mph - N/A   Unknown
9:50 PM 55.4 °F 51.8 °F 88% 30.04 in 5.0 mi Variable 2.3 mph - N/A   Unknown
10:20 PM 53.6 °F 50.0 °F 88% 30.04 in 4.3 mi North 3.5 mph - N/A   Unknown
10:50 PM 55.4 °F 51.8 °F 88% 30.04 in 4.3 mi NNW 2.3 mph - N/A   Unknown
11:20 PM 57.2 °F 53.6 °F 88% 30.04 in 4.3 mi NNE 3.5 mph - N/A   Unknown
11:50 PM 57.2 °F 51.8 °F 82% 30.04 in 4.3 mi NNW 4.6 mph - N/A   Unknown